一网星座-0420星 (ONEWEB-0420 )

导读

ONEWEB-0420是英国一网公司OneWeb低轨卫星互联网星座的卫星,于2021年12月27日发射。OneWeb计划打造由近600颗低轨卫星组成的星座,旨在提供高速低延迟的全球卫星互联网接入服务,助力偏远地区联网、全球宽带覆盖。 作为星座组网的一部分,ONEWEB-0420服务于OneWeb“空天地一体化”网络构建,推动全球泛在连接,同时卫星互联网技术也可为应急通信、物联网等领域提供基础设施支撑。

基本信息
目录编号:
50495
目录名称:
ONEWEB-0420
国际标识:
2021-132AC
轨道中心:
EARTH
卫星名称:
一网星座-0420星
卫星全名:
一网星座-0420星 (ONEWEB-0420 )
卫星状态:
在轨 (已飞行1630 天)
发射日期:
2021-12-27 UTC
国别 :
英国 (GB)
星等 :
--
轨道信息
数据来源 国际轨道数据 AOE轨道数据
星历时间 2026-06-14T05:49:50+0800
14小时前
查看轨道信息
2026-06-12T17:00:00+0800
2天前
查看轨道信息
半长轴 7567.881km 7567.886km
偏心率 0.0001653 0.0001553
轨道倾角 87.916° 87.916°
近地点辐角 95.391° 86.671°
升交点赤经 336.111° 336.416°
平近点角 264.741° 192.434°
近地点 1188.493km 1188.573km
远地点 1190.995km 1190.925km
周期 109.200分钟 109.200分钟
每日圈数 13.186859 13.186845
详细信息
平衡模式:
三轴稳定
覆盖范围:
全球
运营商:
一网卫星公司
运营商所在国:
英国
制造商(研发单位):
一网卫星公司
制造商所在国:
英国
使用方式:
暂无
卫星简介
OneWeb卫星网络由648颗重约125公斤的微型卫星组成,运行在1200公里的轨道上。 每颗卫星都能够提供至少每秒8千兆位的吞吐量,以使用其高吞吐量的Ku频段有效载荷为家庭和移动平台提供互联网接入。该卫星仍在工作。
2D轨道图
3D轨道图
轨道高度分析图
轨道倾角分析图
轨道综合分析图
查看轨道综合分析图